When you browse on this site, cookies collect data to enhance your experience and personalize the content and advertising you see.
Visit our Privacy Policy to learn more. By continuing to use the site, you agree to this use of cookies and data.
  • In Hungary
  • List of Countries
  • For 7 days
  • Water Temperature
  • Weather Map
  • News
  • Weather Widgets
  • user-avatar
    Login

    Hourly Weather Kurbatovo

    Today, 19 October, Saturday

    Time Temperature Precipitation Wind Pressure Humidity
    00:00 0°C° 0 mm 4 mps 750 mmHg 88%
    01:00 0°C° 0 mm 4 mps 751 mmHg 88%
    02:00 -1°C° 0 mm 4 mps 751 mmHg 87%
    03:00 -1°C° 0 mm 4 mps 752 mmHg 88%
    04:00 -1°C° 0 mm 4 mps 752 mmHg 88%
    05:00 -2°C° 0 mm 4 mps 752 mmHg 88%
    06:00 -2°C° 0 mm 4 mps 753 mmHg 88%
    07:00 -2°C° 0 mm 4 mps 753 mmHg 86%
    08:00 -2°C° 0 mm 4 mps 754 mmHg 85%
    09:00 0°C° 0 mm 3 mps 755 mmHg 82%
    10:00 0°C° 0 mm 3 mps 755 mmHg 80%
    11:00 +1°C° 0 mm 3 mps 755 mmHg 78%
    12:00 +1°C° 0 mm 3 mps 755 mmHg 76%
    13:00 +1°C° 0 mm 3 mps 755 mmHg 75%
    14:00 +1°C° 0 mm 3 mps 756 mmHg 75%
    15:00 +1°C° 0 mm 3 mps 756 mmHg 75%
    16:00 0°C° 0 mm 3 mps 756 mmHg 79%
    17:00 +1°C° 0 mm 2 mps 756 mmHg 83%
    18:00 -1°C° 0 mm 2 mps 756 mmHg 87%
    19:00 -2°C° 0 mm 2 mps 757 mmHg 87%
    20:00 -2°C° 0 mm 2 mps 757 mmHg 88%
    21:00 -2°C° 0 mm 2 mps 757 mmHg 88%
    22:00 -2°C° 0 mm 2 mps 757 mmHg 87%
    23:00 -2°C° 0 mm 2 mps 757 mmHg 86%

    Tomorrow, 20 October, Sunday

    Time Temperature Precipitation Wind Pressure Humidity
    00:00 -2°C° 0 mm 2 mps 757 mmHg 85%
    01:00 -2°C° 0 mm 2 mps 757 mmHg 84%
    02:00 -2°C° 0 mm 2 mps 757 mmHg 83%
    03:00 -2°C° 0 mm 2 mps 757 mmHg 82%
    04:00 -2°C° 0 mm 2 mps 757 mmHg 83%
    05:00 -2°C° 0 mm 2 mps 757 mmHg 83%
    06:00 -2°C° 0 mm 3 mps 756 mmHg 84%
    07:00 -2°C° 0 mm 3 mps 756 mmHg 82%
    08:00 -1°C° 0 mm 3 mps 757 mmHg 79%
    09:00 -1°C° 0 mm 4 mps 757 mmHg 77%
    10:00 0°C° 0 mm 4 mps 756 mmHg 77%
    11:00 +1°C° 0 mm 4 mps 756 mmHg 76%
    12:00 +3°C° 0 mm 4 mps 756 mmHg 75%
    13:00 +2°C° 0 mm 5 mps 755 mmHg 77%
    14:00 +2°C° 0 mm 5 mps 755 mmHg 80%
    15:00 +2°C° 0 mm 5 mps 755 mmHg 82%
    16:00 +2°C° 0.5 mm 5 mps 755 mmHg 85%
    17:00 +2°C° 0.5 mm 5 mps 755 mmHg 88%
    18:00 +2°C° 0.5 mm 5 mps 754 mmHg 92%
    19:00 +2°C° 0.3 mm 5 mps 754 mmHg 93%
    20:00 +3°C° 0.3 mm 5 mps 754 mmHg 94%
    21:00 +3°C° 0.3 mm 5 mps 754 mmHg 94%
    22:00 +5°C° 0.1 mm 4 mps 754 mmHg 95%
    23:00 +5°C° 0.1 mm 4 mps 753 mmHg 96%

    Day after tomorrow, 21 October, Monday

    Time Temperature Precipitation Wind Pressure Humidity
    00:00 +5°C° 0.1 mm 4 mps 753 mmHg 96%
    01:00 +6°C° 0.1 mm 4 mps 753 mmHg 97%
    02:00 +6°C° 0.1 mm 4 mps 753 mmHg 97%
    03:00 +7°C° 0.1 mm 3 mps 753 mmHg 97%
    04:00 +7°C° 0.1 mm 3 mps 753 mmHg 97%
    05:00 +6°C° 0.1 mm 4 mps 753 mmHg 97%
    06:00 +6°C° 0.1 mm 4 mps 753 mmHg 97%
    07:00 +7°C° 0.1 mm 4 mps 752 mmHg 96%
    08:00 +7°C° 0.1 mm 5 mps 752 mmHg 95%
    09:00 +8°C° 0.1 mm 5 mps 752 mmHg 94%
    10:00 +9°C° 0 mm 6 mps 752 mmHg 90%
    11:00 +9°C° 0 mm 6 mps 751 mmHg 87%
    12:00 +10°C° 0 mm 7 mps 751 mmHg 83%
    13:00 +10°C° 0 mm 7 mps 750 mmHg 83%
    14:00 +10°C° 0 mm 7 mps 749 mmHg 83%
    15:00 +10°C° 0 mm 7 mps 749 mmHg 82%
    16:00 +10°C° 0 mm 7 mps 748 mmHg 83%
    17:00 +10°C° 0 mm 8 mps 748 mmHg 83%
    18:00 +10°C° 0 mm 8 mps 747 mmHg 84%
    19:00 +10°C° 0.1 mm 8 mps 746 mmHg 84%
    20:00 +10°C° 0.1 mm 8 mps 746 mmHg 84%
    21:00 +11°C° 0.1 mm 8 mps 745 mmHg 85%
    22:00 +10°C° 1.2 mm 7 mps 745 mmHg 87%
    23:00 +10°C° 1.2 mm 7 mps 744 mmHg 89%

    22 October, Tuesday

    Time Temperature Precipitation Wind Pressure Humidity
    00:00 +10°C° 1.2 mm 7 mps 744 mmHg 91%
    01:00 +10°C° 1.1 mm 6 mps 744 mmHg 92%
    02:00 +10°C° 1.1 mm 5 mps 744 mmHg 92%
    03:00 +10°C° 1.1 mm 4 mps 744 mmHg 92%
    04:00 +8°C° 0.1 mm 4 mps 745 mmHg 91%
    05:00 +8°C° 0.1 mm 3 mps 745 mmHg 91%
    06:00 +7°C° 0.1 mm 3 mps 746 mmHg 90%
    07:00 +7°C° 0 mm 3 mps 746 mmHg 88%
    08:00 +7°C° 0 mm 3 mps 747 mmHg 86%
    09:00 +7°C° 0 mm 3 mps 748 mmHg 85%
    10:00 +8°C° 0 mm 3 mps 748 mmHg 81%
    11:00 +9°C° 0 mm 3 mps 748 mmHg 77%
    12:00 +9°C° 0 mm 3 mps 748 mmHg 74%
    13:00 +9°C° 0 mm 3 mps 748 mmHg 75%
    14:00 +9°C° 0 mm 3 mps 749 mmHg 76%
    15:00 +9°C° 0 mm 3 mps 749 mmHg 77%
    16:00 +8°C° 0.1 mm 3 mps 749 mmHg 80%
    17:00 +8°C° 0.1 mm 3 mps 749 mmHg 82%
    18:00 +7°C° 0.1 mm 3 mps 749 mmHg 85%
    19:00 +7°C° 0.1 mm 3 mps 750 mmHg 85%
    20:00 +7°C° 0.1 mm 3 mps 750 mmHg 86%
    21:00 +5°C° 0.1 mm 4 mps 750 mmHg 86%
    22:00 +4°C° 0 mm 3 mps 750 mmHg 87%
    23:00 +3°C° 0 mm 3 mps 750 mmHg 88%

    23 October, Wednesday

    Time Temperature Precipitation Wind Pressure Humidity
    00:00 +4°C° 0 mm 2 mps 750 mmHg 88%
    01:00 +3°C° 0 mm 2 mps 750 mmHg 90%
    02:00 +2°C° 0 mm 2 mps 751 mmHg 92%
    03:00 +2°C° 0 mm 2 mps 751 mmHg 93%
    04:00 +2°C° 0 mm 2 mps 751 mmHg 92%
    05:00 +2°C° 0 mm 2 mps 751 mmHg 92%
    06:00 +2°C° 0 mm 2 mps 751 mmHg 91%
    07:00 +2°C° 0 mm 2 mps 751 mmHg 87%
    08:00 +3°C° 0 mm 2 mps 751 mmHg 84%
    09:00 +3°C° 0 mm 2 mps 751 mmHg 80%
    10:00 +3°C° 0 mm 3 mps 751 mmHg 78%
    11:00 +4°C° 0 mm 3 mps 750 mmHg 75%
    12:00 +4°C° 0 mm 4 mps 750 mmHg 73%
    13:00 +4°C° 0 mm 4 mps 750 mmHg 74%
    14:00 +4°C° 0 mm 4 mps 749 mmHg 76%
    15:00 +3°C° 0 mm 5 mps 749 mmHg 77%
    16:00 +3°C° 0 mm 5 mps 748 mmHg 80%
    17:00 +3°C° 0 mm 5 mps 748 mmHg 82%
    18:00 +3°C° 0 mm 6 mps 747 mmHg 84%
    19:00 +4°C° 0 mm 6 mps 747 mmHg 85%
    20:00 +5°C° 0 mm 5 mps 746 mmHg 86%
    21:00 +6°C° 0 mm 5 mps 746 mmHg 87%
    22:00 +6°C° 0.5 mm 5 mps 746 mmHg 89%
    23:00 +6°C° 0.5 mm 5 mps 745 mmHg 92%

    24 October, Thursday

    Time Temperature Precipitation Wind Pressure Humidity
    00:00 +7°C° 0.5 mm 5 mps 745 mmHg 95%
    01:00 +7°C° 0 mm 4 mps 745 mmHg 95%
    02:00 +7°C° 0 mm 4 mps 745 mmHg 96%
    03:00 +8°C° 0 mm 4 mps 745 mmHg 96%
    04:00 +8°C° 0 mm 4 mps 744 mmHg 96%
    05:00 +8°C° 0 mm 4 mps 744 mmHg 95%
    06:00 +8°C° 0 mm 4 mps 744 mmHg 95%
    07:00 +8°C° 0.1 mm 4 mps 744 mmHg 91%
    08:00 +10°C° 0.1 mm 4 mps 745 mmHg 86%
    09:00 +9°C° 0.1 mm 5 mps 745 mmHg 82%
    10:00 +9°C° 0 mm 5 mps 745 mmHg 80%
    11:00 +9°C° 0 mm 5 mps 746 mmHg 79%
    12:00 +8°C° 0 mm 5 mps 746 mmHg 77%
    13:00 +8°C° 0 mm 5 mps 747 mmHg 76%
    14:00 +8°C° 0 mm 4 mps 747 mmHg 76%
    15:00 +8°C° 0 mm 4 mps 747 mmHg 75%
    16:00 +8°C° 0 mm 4 mps 748 mmHg 76%
    17:00 +8°C° 0 mm 3 mps 748 mmHg 77%
    18:00 +8°C° 0 mm 3 mps 749 mmHg 78%
    19:00 +8°C° 0 mm 3 mps 749 mmHg 79%
    20:00 +7°C° 0 mm 2 mps 750 mmHg 79%
    21:00 +7°C° 0 mm 2 mps 750 mmHg 80%
    22:00 +7°C° 0 mm 2 mps 750 mmHg 82%
    23:00 +6°C° 0 mm 2 mps 750 mmHg 83%
    Show more